Litchfield, MN

11:27 PM CDT on May 20, 2018 (GMT -0500)
Litchfield Municipal

Weather History for KLJF - December, 2011

Change the Weather History Date:

Saturday, December 24, 2011

  Actual Average Record
Temperature  
Mean Temperature 28 °F -  
Max Temperature 42 °F 21 °F 44 °F (1957)
Min Temperature 14 °F 3 °F -23 °F (1983)
Degree Days  
Heating Degree Days 37    
Moisture  
Dew Point 19 °F    
Average Humidity 73    
Maximum Humidity 100    
Minimum Humidity 42    
Precipitation  
Precipitation 0.00 in - - ()
Sea Level Pressure  
Sea Level Pressure 30.06 in    
Wind  
Wind Speed 4 mph (WSW)    
Max Wind Speed 15 mph    
Max Gust Speed 21 mph    
Visibility 10 miles    
Events      
Averages and records for this station are not official NWS values.
T = Trace of Precipitation, MM = Missing Value Source: NWS Daily Summary

Daily Weather History Graph

Daily Weather History Graph

Search for Another Location

Airport or City:

Astronomy

Dec. 24, 2011 Rise Set
Actual Time 7:54 AM CST 4:40 PM CST
Civil Twilight 7:20 AM CST 5:14 PM CST
Nautical Twilight 6:43 AM CST 5:51 PM CST
Astronomical Twilight 6:07 AM CST 6:27 PM CST
Moon 7:43 AM CST (12/24) 4:54 PM CST (12/24)
Length of Visible Light 9h 53m
Length of Day
8h 45m
New Moon, 0% of the Moon is Illuminated
Dec 24
New Moon
Dec 24
New
Jan 1
First Quarter
Jan 9
Full
Jan 16
Last Quarter

Hourly Weather History & Observations

Time (CST) Temp. Windchill Dew Point Humidity Pressure Visibility Wind Dir Wind Speed Gust Speed Precip Events Conditions
12:13 AM 17.6 °F - 15.8 °F 93% 30.12 in 10.0 mi Calm Calm - N/A   Clear
12:33 AM 17.6 °F 12.3 °F 15.8 °F 93% 30.13 in 10.0 mi SW 3.5 mph - N/A   Clear
12:54 AM 15.8 °F - 14.0 °F 93% 30.13 in 10.0 mi Calm Calm - N/A   Clear
1:33 AM 15.8 °F - 15.8 °F 100% 30.13 in 10.0 mi Calm Calm - N/A   Clear
1:53 AM 14.0 °F - 14.0 °F 100% 30.13 in 10.0 mi Calm Calm - N/A   Clear
2:13 AM 14.0 °F - 14.0 °F 100% 30.14 in 10.0 mi Calm Calm - N/A   Clear
2:33 AM 15.8 °F - 15.8 °F 100% 30.13 in 10.0 mi Calm Calm - N/A   Clear
2:53 AM 15.8 °F - 15.8 °F 100% 30.12 in 10.0 mi Calm Calm - N/A   Clear
3:13 AM 15.8 °F - 15.8 °F 100% 30.11 in 10.0 mi Calm Calm - N/A   Clear
3:33 AM 15.8 °F - 15.8 °F 100% 30.10 in 10.0 mi Calm Calm - N/A   Clear
3:53 AM 17.6 °F 10.7 °F 17.6 °F 100% 30.08 in 10.0 mi SSE 4.6 mph - N/A   Clear
4:13 AM 19.4 °F 14.3 °F 17.6 °F 93% 30.08 in 10.0 mi South 3.5 mph - N/A   Clear
4:33 AM 19.4 °F - 17.6 °F 93% 30.08 in 10.0 mi Calm Calm - N/A   Clear
4:53 AM 17.6 °F - 17.6 °F 100% 30.07 in 10.0 mi Calm Calm - N/A   Clear
5:13 AM 19.4 °F 14.3 °F 17.6 °F 93% 30.06 in 10.0 mi South 3.5 mph - N/A   Clear
5:33 AM 19.4 °F 12.8 °F 17.6 °F 93% 30.05 in 10.0 mi South 4.6 mph - N/A   Clear
5:53 AM 19.4 °F 14.3 °F 17.6 °F 93% 30.05 in 10.0 mi South 3.5 mph - N/A   Clear
6:13 AM 19.4 °F 12.8 °F 17.6 °F 93% 30.05 in 10.0 mi SSW 4.6 mph - N/A   Clear
6:34 AM 21.2 °F 13.6 °F 17.6 °F 86% 30.05 in 10.0 mi SW 5.8 mph - N/A   Clear
6:53 AM 19.4 °F 10.4 °F 17.6 °F 93% 30.05 in 10.0 mi SW 6.9 mph - N/A   Clear
7:13 AM 21.2 °F 12.6 °F 17.6 °F 86% 30.05 in 10.0 mi WSW 6.9 mph - N/A   Clear
7:33 AM 19.4 °F 10.4 °F 15.8 °F 86% 30.05 in 10.0 mi WSW 6.9 mph - N/A   Clear
7:53 AM 19.4 °F 10.4 °F 15.8 °F 86% 30.05 in 10.0 mi WSW 6.9 mph - N/A   Clear
8:13 AM 21.2 °F 13.6 °F 17.6 °F 86% 30.06 in 10.0 mi WSW 5.8 mph - N/A   Clear
8:34 AM 21.2 °F 13.6 °F 17.6 °F 86% 30.05 in 10.0 mi WSW 5.8 mph - N/A   Clear
8:53 AM 24.8 °F 16.9 °F 19.4 °F 80% 30.06 in 10.0 mi West 6.9 mph - N/A   Clear
9:13 AM 24.8 °F 16.9 °F 19.4 °F 80% 30.06 in 10.0 mi West 6.9 mph - N/A   Clear
9:33 AM 26.6 °F 17.5 °F 21.2 °F 80% 30.07 in 10.0 mi West 9.2 mph - N/A   Clear
9:53 AM 28.4 °F 18.5 °F 21.2 °F 74% 30.07 in 10.0 mi West 11.5 mph - N/A   Clear
10:13 AM 28.4 °F 19.7 °F 21.2 °F 74% 30.07 in 10.0 mi West 9.2 mph - N/A   Clear
10:34 AM 30.2 °F 21.9 °F 21.2 °F 69% 30.07 in 10.0 mi West 9.2 mph - N/A   Clear
10:53 AM 32.0 °F 22.1 °F 21.2 °F 64% 30.07 in 10.0 mi West 13.8 mph 20.7 mph N/A   Clear
11:13 AM 33.8 °F 24.8 °F 21.2 °F 60% 30.07 in 10.0 mi West 12.7 mph 19.6 mph N/A   Clear
11:33 AM 35.6 °F 26.6 °F 21.2 °F 56% 30.05 in 10.0 mi West 13.8 mph 19.6 mph N/A   Clear
11:53 AM 37.4 °F 28.5 °F 21.2 °F 52% 30.05 in 10.0 mi West 15.0 mph 18.4 mph N/A   Clear
12:13 PM 37.4 °F 29.3 °F 21.2 °F 52% 30.03 in 10.0 mi West 12.7 mph - N/A   Clear
12:33 PM 39.2 °F 31.6 °F 21.2 °F 49% 30.03 in 10.0 mi West 12.7 mph 17.3 mph N/A   Clear
12:53 PM 39.2 °F 32.0 °F 21.2 °F 49% 30.03 in 10.0 mi West 11.5 mph - N/A   Clear
1:13 PM 39.2 °F 32.0 °F 21.2 °F 49% 30.03 in 10.0 mi West 11.5 mph 17.3 mph N/A   Clear
1:33 PM 41.0 °F 34.3 °F 21.2 °F 45% 30.03 in 10.0 mi West 11.5 mph 16.1 mph N/A   Clear
1:53 PM 42.8 °F 37.5 °F 21.2 °F 42% 30.03 in 10.0 mi West 9.2 mph 17.3 mph N/A   Clear
2:13 PM 41.0 °F 35.8 °F 21.2 °F 45% 30.02 in 10.0 mi WSW 8.1 mph 18.4 mph N/A   Clear
2:33 PM 41.0 °F 35.2 °F 21.2 °F 45% 30.02 in 10.0 mi West 9.2 mph - N/A   Clear
2:53 PM 41.0 °F 34.7 °F 21.2 °F 45% 30.03 in 10.0 mi West 10.4 mph - N/A   Clear
3:14 PM 39.2 °F 34.2 °F 21.2 °F 49% 30.03 in 10.0 mi West 6.9 mph - N/A   Clear
3:33 PM 39.2 °F 35.0 °F 21.2 °F 49% 30.03 in 10.0 mi WSW 5.8 mph - N/A   Clear
3:53 PM 39.2 °F 33.6 °F 21.2 °F 49% 30.03 in 10.0 mi WSW 8.1 mph - N/A   Clear
4:12 PM 39.2 °F 35.9 °F 21.2 °F 49% 30.03 in 10.0 mi SW 4.6 mph - N/A   Clear
4:33 PM 39.2 °F 34.2 °F 21.2 °F 49% 30.03 in 10.0 mi WSW 6.9 mph - N/A   Clear
4:53 PM 41.0 °F 37.1 °F 21.2 °F 45% 30.03 in 10.0 mi West 5.8 mph - N/A   Clear
5:13 PM 41.0 °F 35.2 °F 21.2 °F 45% 30.04 in 10.0 mi West 9.2 mph - N/A   Clear
5:33 PM 41.0 °F 35.8 °F 21.2 °F 45% 30.03 in 10.0 mi West 8.1 mph - N/A   Clear
5:53 PM 39.2 °F 33.6 °F 21.2 °F 49% 30.03 in 10.0 mi WSW 8.1 mph - N/A   Clear
6:13 PM 39.2 °F 34.2 °F 21.2 °F 49% 30.03 in 10.0 mi WSW 6.9 mph - N/A   Clear
6:53 PM 37.4 °F 31.4 °F 21.2 °F 52% 30.02 in 10.0 mi WSW 8.1 mph - N/A   Clear
7:14 PM 37.4 °F 31.4 °F 21.2 °F 52% 30.03 in 10.0 mi WSW 8.1 mph - N/A   Clear
7:33 PM 37.4 °F 30.8 °F 21.2 °F 52% 30.04 in 10.0 mi West 9.2 mph - N/A   Clear
7:53 PM 39.2 °F 33.0 °F 19.4 °F 45% 30.03 in 10.0 mi WSW 9.2 mph - N/A   Clear
8:14 PM 37.4 °F 31.4 °F 19.4 °F 48% 30.04 in 10.0 mi WSW 8.1 mph - N/A   Clear
8:33 PM 37.4 °F 32.1 °F 19.4 °F 48% 30.03 in 10.0 mi West 6.9 mph - N/A   Clear
8:53 PM 37.4 °F 30.3 °F 19.4 °F 48% 30.03 in 10.0 mi West 10.4 mph 18.4 mph N/A   Clear
9:13 PM 37.4 °F 29.8 °F 19.4 °F 48% 30.03 in 10.0 mi West 11.5 mph - N/A   Clear
9:33 PM 37.4 °F 30.8 °F 19.4 °F 48% 30.02 in 10.0 mi West 9.2 mph 18.4 mph N/A   Clear
9:53 PM 37.4 °F 30.8 °F 19.4 °F 48% 30.01 in 10.0 mi WSW 9.2 mph 18.4 mph N/A   Clear
10:13 PM 35.6 °F 28.6 °F 19.4 °F 52% 30.01 in 10.0 mi WSW 9.2 mph 16.1 mph N/A   Clear
10:33 PM 35.6 °F 27.1 °F 19.4 °F 52% 30.00 in 10.0 mi WSW 12.7 mph 19.6 mph N/A   Clear
10:53 PM 35.6 °F 28.0 °F 19.4 °F 52% 30.00 in 10.0 mi WSW 10.4 mph 18.4 mph N/A   Clear
11:13 PM 35.6 °F 27.1 °F 19.4 °F 52% 30.01 in 10.0 mi West 12.7 mph 17.3 mph N/A   Clear
11:33 PM 35.6 °F 27.5 °F 19.4 °F 52% 30.02 in 10.0 mi West 11.5 mph - N/A   Clear
11:53 PM 33.8 °F 25.3 °F 19.4 °F 56% 30.01 in 10.0 mi West 11.5 mph 17.3 mph N/A   Clear